This is the latest recevied weather packets stored in our database for station/object AB8Y-13. If no packets are shown the sender has not sent any weather packets the latest 10 day(s).
| Time | Temp. | Humidity | Pressure | Rain* | Wind** | Luminosity | Snow |
|---|---|---|---|---|---|---|---|
| 1777205901 | 8.33° C | 83% | 1022.4 hPa | 0 mm | - | 128 W/m² | - |
| 1777205598 | 7.78° C | 83% | 1022.4 hPa | 0 mm | - | 124 W/m² | - |
| 1777205295 | 7.78° C | 84% | 1022.2 hPa | 0 mm | - | 113 W/m² | - |
| 1777204990 | 7.78° C | 87% | 1022.2 hPa | 0 mm | - | 107 W/m² | - |
| 1777204686 | 6.67° C | 91% | 1022 hPa | 0 mm | - | 99 W/m² | - |
| 1777204381 | 6.67° C | 94% | 1021.9 hPa | 0 mm | - | 97 W/m² | - |
| 1777204078 | 6.11° C | 96% | 1021.6 hPa | 0 mm | - | 92 W/m² | - |
| 1777203773 | 6.11° C | 97% | 1021.6 hPa | 0 mm | - | 74 W/m² | - |
| 1777203468 | 5.56° C | 97% | 1021.5 hPa | 0 mm | - | 74 W/m² | - |
| 1777203164 | 5° C | 97% | 1021.5 hPa | 0 mm | - | 61 W/m² | - |
| 1777202862 | 5° C | 97% | 1021.7 hPa | 0 mm | - | 52 W/m² | - |
| 1777202560 | 4.44° C | 97% | 1021.7 hPa | 0 mm | - | 46 W/m² | - |
| 1777202255 | 3.89° C | 97% | 1021.4 hPa | 0 mm | - | 40 W/m² | - |
| 1777201952 | 3.89° C | 96% | 1021.5 hPa | 0 mm | - | 32 W/m² | - |
| 1777201647 | 3.89° C | 97% | 1021.3 hPa | 0 mm | - | 27 W/m² | - |
| 1777201344 | 3.89° C | 96% | 1021.2 hPa | 0 mm | - | 22 W/m² | - |
| 1777201039 | 3.33° C | 96% | 1021.2 hPa | 0 mm | - | 18 W/m² | - |
| 1777200736 | 3.33° C | 96% | 1021.1 hPa | 0 mm | - | 13 W/m² | - |
| 1777200436 | 3.33° C | 96% | 1021 hPa | 0 mm | - | 9 W/m² | - |
| 1777200132 | 3.89° C | 96% | 1021 hPa | 0 mm | - | 6 W/m² | - |
| 1777199829 | 3.89° C | 96% | 1020.9 hPa | 0 mm | - | 4 W/m² | - |
| 1777199524 | 3.89° C | 96% | 1021 hPa | 0 mm | - | 2 W/m² | - |
| 1777199224 | 3.89° C | 96% | 1020.6 hPa | 0 mm | - | 1 W/m² | - |
| 1777198923 | 3.89° C | 96% | 1020.5 hPa | 0 mm | - | 0 W/m² | - |
| 1777198620 | 3.89° C | 96% | 1020.6 hPa | 0 mm | - | 0 W/m² | - |
* Rain latest hour (hover to see other rain measurements)
** Current wind speed in m/s (hover to see current wind gust speed)